[[{"header":{"parameterUnit":"m.s-1","parameterCategory":1,"la1":30.2991,"la2":30.254,"lo1":-89.0895,"lo2":-89.0444,"dy":0.0017,"dx":0.0017,"nx":28,"ny":28,"refTime":"2024-03-01T03:00:00:Z","depth":0,"parameterNumber":2,"parameterNumberName":"U-component_of_WINDS"},"data":[0,0,0,0,0,0,0,0,0,0,0,0,0,0,0,0,0,0,0,0,0,0,0,0,0,0,0,0,0,0,0,0,0,0,0,0,0,0,0,0,0,0,0,0,0,0,0,0,0,0,0,0,0,0,0,0,0,0,-5.2836,-5.2836,0,-5.2872,-5.2872,-5.2872,-5.2734,-5.2729,-5.2725,-5.2721,-5.2759,-5.2764,-5.2769,0,0,0,0,0,0,0,0,0,0,0,0,0,-5.2648,-5.2653,-5.2836,-5.2836,-5.2837,-5.2872,-5.2872,-5.2872,-5.2734,-5.2729,-5.2724,-5.272,-5.2758,-5.2763,-5.2769,0,0,0,0,0,0,0,0,0,0,0,0,0,-5.2712,-5.2654,-5.2836,-5.2772,-5.2767,-5.2871,-5.2872,-5.2873,-5.2735,-5.2729,-5.2723,-5.2717,-5.2756,-5.2763,-5.277,-5.2938,0,0,-5.2792,-5.2795,0,0,0,0,0,0,0,0,-5.2708,-5.2719,-5.2781,-5.2777,-5.2771,-5.2792,-5.282,-5.2895,-5.2737,-5.2747,-5.2721,-5.2714,-5.2775,-5.278,-5.2801,-5.294,-5.2942,-5.2793,-5.2797,-5.28,-5.2802,0,0,0,0,0,0,0,-5.2704,-5.2716,-5.285,-5.2782,-5.2776,-5.2742,-5.2744,-5.2833,-5.2795,-5.2746,-5.2736,-5.2742,-5.2771,-5.2794,-5.2801,-5.2942,-5.2793,-5.2799,-5.2804,-5.2806,-5.3221,-5.3227,0,0,0,0,0,0,-5.2708,-5.2714,-5.2849,-5.2851,-5.2724,-5.275,-5.2752,-5.2791,-5.2794,-5.2789,-5.2747,-5.2735,-5.2785,-5.2792,-5.2801,-5.2998,-5.28,-5.2807,-5.2811,-5.3214,-5.3222,-5.323,0,0,0,0,0,0,-5.2704,-5.2721,-5.2847,-5.278,-5.2793,-5.276,-5.2805,-5.2795,-5.2818,-5.2795,-5.2788,-5.2778,-5.278,-5.2791,-5.2905,-5.2998,-5.281,-5.2817,-5.3207,-5.3217,-5.3226,-5.3394,0,0,0,0,0,0,-5.27,-5.2721,-5.2785,-5.2782,-5.2797,-5.2951,-5.281,-5.28,-5.2831,-5.2816,-5.2821,-5.2817,-5.2776,-5.2895,-5.2912,-5.3004,-5.2823,-5.3198,-5.3211,-5.3223,-5.338,-5.3409,-5.3433,0,0,0,0,0,-5.2693,-5.2831,-5.2789,-5.2806,-5.2876,-5.2957,-5.2965,-5.2915,-5.2839,-5.2902,-5.2888,-5.2816,-5.2985,-5.2908,-5.2926,-5.3022,-5.3192,-5.3207,-5.3222,-5.3368,-5.3403,-5.3432,0,0,0,0,0,0,-5.2846,-5.2829,-5.2782,-5.2923,-5.2942,-5.2933,-5.3012,-5.2954,-5.2996,-5.298,-5.2917,-5.2919,-5.3044,-5.3044,-5.2959,-5.3185,-5.3075,-5.3095,-5.318,-5.3213,-5.3239,-5.3236,-5.2829,0,0,0,0,0,-5.2895,-5.2962,-5.2944,-5.307,-5.3082,-5.3046,-5.3079,-5.3039,-5.3056,-5.3064,-5.3057,-5.3078,-5.3134,-5.3174,-5.3225,-5.3379,-5.3379,-5.3454,-5.3481,-5.3502,-5.352,-5.3601,-5.3634,-5.3279,-5.3279,-5.3278,0,0,-5.2999,-5.2998,-5.3044,-5.31,-5.3111,-5.3181,-5.3053,-5.3133,-5.3185,-5.3076,-5.3183,-5.3179,-5.3197,-5.3332,-5.3391,-5.3336,-5.3618,-5.3521,-5.3539,-5.3545,-5.362,-5.3654,-5.3684,-5.3289,-5.3287,-5.3286,0,0,-5.3224,-5.323,-5.3336,-5.3348,-5.3365,-5.334,-5.3366,-5.3365,-5.3358,-5.3465,-5.3384,-5.3445,-5.3545,-5.3561,-5.3582,-5.3813,-5.3749,-5.3832,-5.397,-5.405,-5.4078,-5.4102,-5.4185,-5.4215,-5.3849,-5.385,-5.385,0,-5.3351,-5.3454,-5.3397,-5.3483,-5.351,-5.3414,-5.352,-5.3535,-5.3568,-5.3589,-5.3526,-5.365,-5.3655,-5.3792,-5.3849,-5.3869,-5.3896,-5.3831,-5.4078,-5.4102,-5.4124,-5.4202,-5.4233,-5.3859,-5.3858,-5.3857,-5.3856,0,-5.3609,-5.3681,-5.3764,-5.3798,-5.3834,-5.393,-5.3888,-5.3932,-5.3889,-5.387,-5.398,-5.3983,-5.4033,-5.4062,-5.4021,-5.4194,-5.4159,-5.4089,-5.3977,-5.4169,-5.4241,-5.427,-5.3874,-5.387,-5.3867,-5.3865,0,0,-5.3931,-5.3932,-5.3963,-5.3977,-5.3989,-5.4044,-5.4135,-5.4183,-5.4222,-5.4248,-5.4323,-5.441,-5.4344,-5.4369,-5.4328,-5.4399,-5.4581,-5.4319,-5.4318,-5.4368,-5.4772,-5.4825,-5.486,-5.4539,-5.4544,-5.4549,-5.477,0,-5.4151,-5.4307,-5.4258,-5.4415,-5.4481,-5.4391,-5.447,-5.4486,-5.4471,-5.4525,-5.4509,-5.4571,-5.448,-5.4494,-5.456,-5.4545,-5.4662,-5.4529,-5.4608,-5.4612,-5.4606,-5.4898,-5.4954,-5.5163,-5.4798,-5.4803,-5.4806,0,-5.443,-5.4466,-5.463,-5.463,-5.4655,-5.4728,-5.4768,-5.4821,-5.4837,-5.4821,-5.4849,-5.4794,-5.4883,-5.4772,-5.4894,-5.4805,-5.4834,-5.4832,-5.4839,-5.4844,-5.4721,-5.4911,-5.5229,-5.526,-5.485,-5.4846,-5.4843,0,-5.4648,-5.4738,-5.4847,-5.4862,-5.4865,-5.4918,-5.4921,-5.4931,-5.4963,-5.4999,-5.5019,-5.5065,-5.509,-5.5127,-5.5086,-5.5009,-5.5215,-5.51,-5.5204,-5.5206,-5.5252,-5.525,-5.5579,-5.5272,-5.5271,-5.527,-5.527,0,-5.4899,-5.5003,-5.4945,-5.5013,-5.5126,-5.507,-5.5183,-5.5177,-5.5186,-5.5251,-5.5176,-5.5238,-5.518,-5.5237,-5.5205,-5.5311,-5.5323,-5.5313,-5.5304,-5.532,-5.5322,-5.5339,-5.5323,-5.5279,-5.5277,-5.5275,-5.5274,0,-5.5163,-5.5128,-5.5241,-5.5234,-5.5235,-5.5319,-5.5313,-5.5375,-5.5354,-5.5437,-5.5453,-5.5422,-5.5485,-5.5447,-5.5512,-5.5491,-5.5629,-5.5599,-5.5624,-5.5616,-5.5722,-5.5713,-5.6074,-5.6118,-5.5783,-5.5786,-5.5789,0,-5.5325,-5.5403,-5.5404,-5.5442,-5.545,-5.5512,-5.5544,-5.5491,-5.5528,-5.5552,-5.5612,-5.5668,-5.571,-5.5816,-5.5799,-5.5848,-5.5819,-5.5942,-5.5826,-5.584,-5.5821,-5.5817,-5.5824,-5.5966,-5.5969,-5.5973,-5.5975,0,-5.5618,-5.5597,-5.5646,-5.569,-5.5731,-5.5763,-5.5788,-5.5824,-5.5771,-5.5816,-5.588,-5.5913,-5.5978,-5.6036,-5.6077,-5.608,-5.602,-5.6012,-5.6039,-5.6056,-5.6067,-5.6062,-5.5688,-5.6004,-5.6001,-5.5999,-5.5997,-5.5996,-5.5835,-5.59,-5.5911,-5.5968,-5.5982,-5.6008,-5.6065,-5.6052,-5.6104,-5.6153,-5.6119,-5.6194,-5.6208,-5.6257,-5.6268,-5.6327,-5.6277,-5.6316,-5.6325,-5.6336,-5.6351,-5.6058,-5.6334,-5.6333,-5.6332,-5.6332,-5.6331,0,-5.6124,-5.6126,-5.6179,-5.6218,-5.6263,-5.6201,-5.6226,-5.6268,-5.6335,-5.6353,-5.6396,-5.6469,-5.6524,-5.6512,-5.6561,-5.661,-5.6584,-5.6625,-5.6621,-5.6623,-5.6392,-5.6364,-5.6646,-5.6646,-5.6646,-5.6646,-5.6645,-5.6645,-5.6279,-5.6385,-5.6365,-5.6477,-5.6478,-5.6551,-5.6571,-5.6594,-5.6608,-5.6693,-5.6738,-5.6729,-5.6734,-5.6784,-5.6832,-5.6826,-5.6848,-5.69,-5.6885,-5.667,-5.6639,-5.6609,-5.6582,-5.6905,-5.6906,-5.711,-5.7112,-5.7114]},{"header":{"parameterUnit":"m.s-1","parameterCategory":1,"la1":30.2991,"la2":30.254,"lo1":-89.0895,"lo2":-89.0444,"dy":0.0017,"dx":0.0017,"nx":28,"ny":28,"refTime":"2024-03-01T03:00:00:Z","depth":0,"parameterNumber":3,"parameterNumberName":"V-component_of_WINDS"},"data":[0,0,0,0,0,0,0,0,0,0,0,0,0,0,0,0,0,0,0,0,0,0,0,0,0,0,0,0,0,0,0,0,0,0,0,0,0,0,0,0,0,0,0,0,0,0,0,0,0,0,0,0,0,0,0,0,0,0,-1.268,-1.268,0,-1.2686,-1.2686,-1.2686,-1.2662,-1.2661,-1.266,-1.266,-1.2667,-1.2667,-1.2668,0,0,0,0,0,0,0,0,0,0,0,0,0,-1.2645,-1.2645,-1.268,-1.268,-1.268,-1.2686,-1.2686,-1.2686,-1.2662,-1.2661,-1.266,-1.2659,-1.2666,-1.2667,-1.2668,0,0,0,0,0,0,0,0,0,0,0,0,0,-1.2656,-1.2646,-1.268,-1.2668,-1.2667,-1.2686,-1.2686,-1.2686,-1.2662,-1.2661,-1.266,-1.2659,-1.2666,-1.2667,-1.2669,-1.2699,0,0,-1.2673,-1.2673,0,0,0,0,0,0,0,0,-1.2656,-1.2658,-1.267,-1.2669,-1.2668,-1.2672,-1.2676,-1.269,-1.2662,-1.2664,-1.266,-1.2658,-1.2669,-1.267,-1.2674,-1.2699,-1.2699,-1.2673,-1.2673,-1.2674,-1.2674,0,0,0,0,0,0,0,-1.2655,-1.2657,-1.2682,-1.267,-1.2669,-1.2663,-1.2663,-1.2679,-1.2673,-1.2664,-1.2662,-1.2663,-1.2669,-1.2673,-1.2674,-1.2699,-1.2673,-1.2674,-1.2675,-1.2675,-1.2747,-1.2748,0,0,0,0,0,0,-1.2656,-1.2657,-1.2682,-1.2682,-1.2659,-1.2664,-1.2665,-1.2672,-1.2673,-1.2672,-1.2664,-1.2662,-1.2671,-1.2672,-1.2674,-1.2708,-1.2674,-1.2675,-1.2676,-1.2745,-1.2747,-1.2748,0,0,0,0,0,0,-1.2655,-1.2658,-1.2682,-1.2669,-1.2672,-1.2666,-1.2674,-1.2673,-1.2677,-1.2673,-1.2671,-1.267,-1.267,-1.2672,-1.2692,-1.2708,-1.2676,-1.2677,-1.2744,-1.2746,-1.2747,-1.2777,0,0,0,0,0,0,-1.2654,-1.2658,-1.267,-1.267,-1.2672,-1.27,-1.2675,-1.2674,-1.2679,-1.2676,-1.2678,-1.2677,-1.267,-1.269,-1.2693,-1.2709,-1.2678,-1.2743,-1.2745,-1.2747,-1.2774,-1.2779,-1.2783,0,0,0,0,0,-1.2653,-1.2679,-1.2671,-1.2674,-1.2687,-1.2701,-1.2703,-1.2694,-1.268,-1.2692,-1.2689,-1.2677,-1.2705,-1.2692,-1.2696,-1.2712,-1.2742,-1.2744,-1.2747,-1.2772,-1.2778,-1.2783,0,0,0,0,0,0,-1.2682,-1.2679,-1.267,-1.2696,-1.2699,-1.2697,-1.2712,-1.2701,-1.2708,-1.2705,-1.2694,-1.2694,-1.2716,-1.2716,-1.2702,-1.274,-1.2721,-1.2724,-1.2739,-1.2745,-1.2749,-1.2749,-1.2679,0,0,0,0,0,-1.2692,-1.2704,-1.27,-1.2723,-1.2725,-1.2718,-1.2724,-1.2716,-1.2719,-1.2721,-1.2719,-1.2722,-1.2731,-1.2738,-1.2747,-1.2774,-1.2773,-1.2786,-1.2791,-1.2795,-1.2798,-1.281,-1.2816,-1.2756,-1.2756,-1.2756,0,0,-1.2711,-1.2711,-1.2719,-1.2729,-1.273,-1.2742,-1.2719,-1.2734,-1.2742,-1.2723,-1.2741,-1.274,-1.2742,-1.2765,-1.2775,-1.2766,-1.2814,-1.2798,-1.2801,-1.2802,-1.2813,-1.2819,-1.2824,-1.2758,-1.2758,-1.2757,0,0,-1.2753,-1.2755,-1.2774,-1.2775,-1.2777,-1.2772,-1.2776,-1.2775,-1.2773,-1.2791,-1.2776,-1.2786,-1.2803,-1.2805,-1.2808,-1.2848,-1.2836,-1.2851,-1.2875,-1.2887,-1.2892,-1.2896,-1.2909,-1.2914,-1.2854,-1.2854,-1.2854,0,-1.2778,-1.2796,-1.2785,-1.2799,-1.2803,-1.2785,-1.2803,-1.2805,-1.281,-1.2813,-1.2802,-1.2821,-1.2822,-1.2844,-1.2854,-1.2857,-1.2861,-1.2851,-1.2892,-1.2896,-1.2899,-1.2912,-1.2917,-1.2855,-1.2855,-1.2855,-1.2855,0,-1.2825,-1.2837,-1.2852,-1.2856,-1.2862,-1.2878,-1.2869,-1.2876,-1.2867,-1.2863,-1.288,-1.288,-1.2887,-1.2892,-1.2884,-1.2912,-1.2906,-1.2894,-1.2875,-1.2907,-1.2918,-1.2923,-1.2858,-1.2857,-1.2857,-1.2856,0,0,-1.2888,-1.2884,-1.2889,-1.289,-1.289,-1.2899,-1.2913,-1.292,-1.2925,-1.2929,-1.294,-1.2954,-1.2941,-1.2945,-1.2937,-1.2947,-1.2977,-1.2933,-1.2933,-1.2941,-1.3007,-1.3017,-1.3022,-1.2969,-1.297,-1.2971,-1.3007,0,-1.2929,-1.2954,-1.2943,-1.2969,-1.2979,-1.296,-1.2973,-1.2974,-1.2969,-1.2977,-1.2972,-1.2981,-1.2965,-1.2966,-1.2976,-1.2972,-1.299,-1.2969,-1.2979,-1.298,-1.298,-1.3029,-1.3039,-1.3073,-1.3011,-1.3012,-1.3012,0,-1.298,-1.2984,-1.3011,-1.3006,-1.301,-1.3022,-1.3026,-1.3034,-1.3033,-1.3029,-1.3032,-1.302,-1.3033,-1.3014,-1.3031,-1.3017,-1.302,-1.3018,-1.3019,-1.302,-1.2999,-1.3031,-1.3084,-1.3089,-1.302,-1.3019,-1.3019,0,-1.3022,-1.3035,-1.3052,-1.3053,-1.3048,-1.3056,-1.3055,-1.3053,-1.3057,-1.306,-1.3062,-1.3067,-1.307,-1.3074,-1.3064,-1.305,-1.3082,-1.3062,-1.3078,-1.3079,-1.3087,-1.3086,-1.3141,-1.3089,-1.3089,-1.3088,-1.3088,0,-1.3069,-1.3086,-1.307,-1.3081,-1.3098,-1.3085,-1.3103,-1.3099,-1.3097,-1.3106,-1.309,-1.3099,-1.3085,-1.3092,-1.3084,-1.3099,-1.31,-1.3097,-1.3095,-1.3098,-1.3099,-1.3101,-1.3098,-1.309,-1.3089,-1.3089,-1.3089,0,-1.312,-1.311,-1.3127,-1.312,-1.3119,-1.3132,-1.3126,-1.3136,-1.3129,-1.314,-1.3142,-1.3132,-1.3139,-1.3129,-1.3135,-1.313,-1.315,-1.3144,-1.315,-1.3148,-1.3165,-1.3164,-1.3224,-1.323,-1.3174,-1.3174,-1.3175,0,-1.3151,-1.3163,-1.3157,-1.3161,-1.316,-1.3168,-1.3171,-1.3158,-1.3162,-1.3161,-1.317,-1.3175,-1.3179,-1.3191,-1.3184,-1.3188,-1.3182,-1.3203,-1.3183,-1.3186,-1.3182,-1.3181,-1.3182,-1.3207,-1.3208,-1.3208,-1.3209,0,-1.3206,-1.32,-1.3205,-1.3208,-1.3212,-1.3214,-1.3214,-1.3219,-1.3204,-1.3209,-1.3216,-1.3219,-1.3224,-1.3229,-1.3231,-1.3229,-1.3216,-1.3215,-1.3219,-1.3223,-1.3226,-1.3224,-1.3161,-1.3214,-1.3213,-1.3213,-1.3213,-1.3212,-1.3247,-1.3257,-1.3253,-1.3259,-1.3257,-1.3258,-1.3265,-1.3259,-1.3264,-1.3267,-1.3258,-1.3267,-1.3264,-1.3265,-1.3264,-1.327,-1.3261,-1.3267,-1.3268,-1.327,-1.3272,-1.3224,-1.327,-1.327,-1.327,-1.3269,-1.3269,0,-1.3301,-1.3297,-1.3303,-1.3303,-1.3307,-1.3294,-1.3293,-1.3297,-1.3305,-1.3303,-1.3306,-1.3313,-1.3317,-1.3309,-1.3312,-1.3318,-1.3313,-1.332,-1.3319,-1.3319,-1.328,-1.3276,-1.3324,-1.3324,-1.3324,-1.3324,-1.3324,-1.3324,-1.333,-1.3344,-1.3337,-1.335,-1.3346,-1.3354,-1.3354,-1.3354,-1.3352,-1.336,-1.3363,-1.3358,-1.3353,-1.3355,-1.3358,-1.3356,-1.3358,-1.3367,-1.3362,-1.3327,-1.3322,-1.3317,-1.3313,-1.3367,-1.3368,-1.34,-1.3401,-1.3401]}]]